Wind_Speed
19 15 20 22 21 18 21 30 31 31 29 30 32 31 28 23 22 21 18 18 18 18 18 16 14 16 18 17 16 17 19 20 18 20 21 23 25 27 28 28 29 29 28
23 17 17 23 24 22 21 24 28 34 32 28 31 30 28 25 23 21 20 20 21 19 20 19 18 19 20 20 20 21 22 22 22 23 24 25 26 29 28 28 28 29 30
22 24 22 17 24 27 25 25 26 28 34 31 32 34 33 30 30 28 26 24 22 22 23 22 22 22 22 22 22 23 25 25 25 25 22 10 12 17 15 11 14 18 21
18 21 27 23 20 28 28 25 25 25 29 30 31 37 35 33 33 33 29 25 25 25 26 27 27 26 25 26 24 23 25 26 27 28 29 31 33 25 19 22 20 22 25
26 20 20 21 22 24 28 29 26 26 27 28 29 28 27 27 35 36 33 30 28 30 30 29 29 30 30 30 29 30 29 29 28 29 30 33 34 35 37 34 34 33 32
25 23 19 18 20 24 29 33 31 29 28 28 29 28 29 28 29 30 31 33 33 32 30 30 31 31 30 28 28 28 30 32 33 34 33 35 32 31 31 35 38 37 36
27 28 26 21 14 16 24 28 28 27 26 26 26 27 26 26 27 28 30 31 31 30 30 29 27 26 23 23 24 23 26 25 27 29 33 33 34 32 34 37 38 35 35
30 29 29 24 20 17 18 22 25 25 23 22 22 24 25 26 28 28 30 32 32 32 31 30 28 27 24 24 23 22 24 24 26 26 24 25 25 28 28 28 28 31 32
28 30 28 26 24 22 21 21 21 21 22 23 24 25 26 28 29 29 30 29 30 31 31 31 28 27 25 25 24 24 24 25 25 28 27 26 26 28 27 27 26 23 26
22 27 26 24 22 21 20 21 21 22 23 24 25 25 25 25 25 27 29 29 28 28 29 30 28 27 29 29 27 25 26 25 23 22 25 24 24 25 24 25 27 23 22
25 24 22 18 17 17 16 16 17 16 15 15 15 15 16 17 18 19 20 21 21 21 20 21 22 25 26 29 29 26 28 26 25 24 22 23 21 21 22 21 17 16 15
21 20 18 17 16 16 16 14 13 12 11 10 11 13 14 16 18 20 20 21 21 21 21 21 21 21 25 26 28 29 26 22 22 20 19 18 17 17 17 17 17 18 19
20 19 18 17 16 14 13 12 10 8 7 7 8 10 12 14 15 16 17 17 18 18 18 19 20 20 20 20 20 18 19 20 14 13 13 12 12 12 13 14 13 13 13
20 20 18 16 14 13 12 11 9 7 6 6 7 9 10 12 13 14 14 13 11 10 10 12 13 14 16 15 14 11 12 11 9 9 8 8 8 9 11 10 9 9 8
20 20 19 18 16 14 13 12 10 7 6 6 6 7 9 10 10 9 9 9 9 9 8 8 7 7 8 8 8 8 8 8 9 9 9 8 7 7 6 6 6 6 6
23 23 20 17 17 16 13 12 10 8 8 7 6 6 6 6 7 7 8 8 8 8 8 8 8 8 8 9 9 9 9 9 8 9 7 6 6 4 5 5 6 6 6
22 23 22 20 18 16 13 12 11 10 9 8 7 6 6 7 7 7 7 7 8 9 9 9 8 9 10 10 10 10 10 10 9 8 7 6 5 3 3 4 6 7 8
21 22 22 21 18 16 15 15 13 12 11 10 9 8 7 8 8 8 8 8 9 9 9 9 9 10 11 11 11 12 11 10 9 8 6 4 2 2 4 7 9 10 11
15 18 22 23 21 18 16 15 14 13 13 11 10 10 10 10 10 9 9 9 10 9 9 10 7 7 13 14 14 12 11 8 6 4 2 1 4 6 8 10 11 11 12
12 12 14 19 21 18 16 16 15 14 13 11 11 10 11 12 11 11 10 10 10 11 13 11 11 12 14 13 11 10 8 5 2 1 2 4 6 8 10 11 12 12 12
6 7 10 16 17 15 16 17 15 14 13 13 10 10 11 12 12 12 12 11 12 13 14 13 14 14 12 10 8 6 4 2 1 3 5 7 9 10 11 11 12 12 12
6 8 11 13 14 14 15 15 14 13 14 15 14 10 10 13 12 13 14 13 13 14 15 14 14 13 11 9 7 4 1 1 3 5 7 9 11 11 13 13 13 12 11
8 10 11 13 14 14 15 15 14 15 15 16 16 15 14 14 14 15 15 15 15 15 15 14 12 11 9 7 5 2 1 3 5 7 9 10 11 11 11 12 12 11 10
9 10 11 13 14 14 15 15 15 16 16 16 17 15 14 15 17 16 15 15 17 16 15 14 12 10 8 5 3 3 4 6 7 8 9 11 12 12 11 11 10 9 9
8 10 11 12 12 14 15 16 17 18 17 17 17 18 17 17 17 16 16 16 14 12 11 11 10 8 6 5 5 5 7 7 8 9 10 11 12 12 12 12 11 10 11
7 10 11 12 12 13 13 15 16 18 18 19 20 20 21 20 19 19 20 19 17 15 14 14 12 10 9 8 7 8 8 8 10 10 11 12 12 12 13 13 13 13 13
Wind_Direction
242 225 207 206 212 214 219 220 220 223 223 215 213 215 221 226 229 229 234 241 244 241 243 248 249 249 253 258 262 263 262 265 267 267 270 270 272 274 276 278 280 280 281
235 223 219 218 219 220 217 219 222 223 227 225 221 224 228 233 241 242 240 240 241 242 245 248 250 252 256 258 260 261 264 265 263 263 269 273 278 275 279 279 280 282 280
240 236 229 234 228 226 222 221 222 224 222 229 227 227 232 234 238 239 240 239 243 243 244 247 249 252 256 259 263 264 264 267 266 264 258 261 256 286 294 294 294 289 281
243 244 238 242 230 227 229 225 217 222 226 229 229 229 235 237 243 248 250 249 250 250 250 249 252 256 256 260 262 265 265 267 267 266 264 262 262 268 285 287 288 289 291
250 249 239 239 234 225 228 230 224 220 223 226 230 234 237 241 243 249 249 251 253 256 257 258 258 261 263 264 266 266 267 268 269 268 270 270 267 267 267 272 277 282 281
238 235 234 237 240 231 222 225 227 226 220 223 229 235 236 241 244 246 247 247 249 252 255 258 260 262 264 263 265 265 264 266 266 265 267 266 263 266 268 273 275 275 278
236 231 223 217 218 219 214 213 216 225 228 226 227 232 239 244 245 245 246 248 250 252 256 260 262 261 262 264 265 263 266 267 269 270 270 271 274 276 274 274 276 283 287
237 232 222 210 201 201 205 207 212 215 221 222 225 232 239 245 251 252 252 254 258 262 265 267 263 257 254 258 261 271 270 264 263 265 270 274 272 272 275 277 278 285 284
227 217 200 195 194 196 203 213 220 226 234 240 245 247 248 250 253 255 256 257 259 262 265 266 263 252 247 249 253 253 264 260 264 271 270 272 274 271 275 274 277 283 281
190 183 184 188 193 201 209 216 224 231 237 242 247 252 257 260 258 256 258 260 261 261 260 258 254 246 250 250 249 250 262 262 263 271 267 269 267 269 271 273 274 277 275
171 173 176 182 193 197 201 205 208 211 217 225 234 243 250 254 256 254 254 256 258 257 256 256 251 244 239 242 243 244 251 260 260 266 263 266 267 269 269 273 274 274 270
169 173 179 183 185 187 186 189 194 199 210 228 241 248 252 255 257 258 257 254 253 251 250 249 248 244 242 244 249 255 254 249 257 257 258 260 262 263 269 272 277 280 279
173 175 178 183 185 188 192 193 199 205 219 240 256 262 263 262 260 259 255 251 251 250 248 246 246 245 245 245 246 244 245 250 245 241 248 255 259 266 270 273 276 275 274
183 184 186 191 196 198 204 206 209 218 235 253 268 270 273 272 268 258 246 239 236 235 238 240 237 239 242 241 240 232 231 227 218 231 232 244 253 261 266 258 261 261 259
195 200 198 200 206 209 215 218 220 228 241 257 265 272 275 272 259 253 231 227 228 227 228 230 224 221 207 206 203 205 205 204 213 214 208 221 230 243 243 249 248 254 257
209 210 211 213 219 222 224 226 228 236 243 244 248 259 273 254 234 228 220 213 215 213 210 210 197 197 193 193 192 187 193 196 194 192 188 197 208 201 219 238 244 255 259
215 219 223 224 226 228 229 227 231 237 234 234 239 239 232 233 225 214 205 201 198 195 188 189 185 190 194 188 179 170 167 162 157 156 160 167 177 193 229 251 269 277 279
232 233 234 231 226 224 224 224 230 228 226 226 226 223 225 220 200 191 188 182 182 179 176 182 184 178 162 157 158 149 145 145 144 145 151 156 193 268 282 288 288 288 290
244 246 246 234 222 223 226 230 232 230 227 220 222 223 213 200 191 186 185 185 182 180 182 167 175 182 156 147 144 139 135 135 137 143 161 242 294 291 286 288 290 291 290
250 248 233 218 214 220 227 229 229 229 226 222 214 217 215 209 207 200 188 196 194 187 174 168 176 158 149 138 137 134 132 132 143 213 279 296 292 294 295 296 297 295 290
229 214 201 204 215 225 228 226 227 224 217 212 203 221 217 215 211 203 192 190 187 182 178 177 165 156 151 144 140 139 144 156 269 298 303 303 306 304 303 306 305 300 294
210 200 205 215 226 230 231 231 229 222 217 218 200 217 232 223 207 200 194 181 191 188 180 172 169 164 162 156 153 155 160 305 307 305 305 308 310 310 308 307 302 295 292
235 224 223 229 232 234 235 233 229 224 222 223 220 213 223 223 210 202 196 190 190 188 180 178 180 177 176 172 171 176 286 302 302 308 307 308 308 309 304 301 299 297 288
262 246 238 237 239 241 240 235 230 228 226 225 221 214 214 213 203 198 199 200 192 187 189 191 190 192 193 194 211 271 298 300 303 309 313 316 311 306 305 308 302 289 277
267 257 248 247 248 248 246 239 231 228 229 225 220 211 206 207 203 199 198 193 193 197 202 201 206 211 216 225 244 273 284 292 300 310 312 311 309 311 311 308 300 289 276
272 261 250 249 254 254 246 240 232 229 229 227 219 215 206 205 205 202 194 194 197 204 206 209 211 219 226 235 253 272 283 290 300 309 309 310 312 309 305 300 293 284 276
Height
1496 1496 1498 1501 1503 1505 1508 1511 1513 1516 1519 1522 1526 1530 1532 1535 1537 1540 1543 1545 1547 1549 1550 1552 1553 1555 1555 1557 1558 1559 1560 1560 1562 1563 1562 1562 1563 1563 1563 1563 1563 1563 1564
1492 1493 1496 1497 1499 1502 1504 1508 1510 1513 1516 1519 1522 1526 1529 1532 1535 1537 1539 1541 1543 1545 1547 1548 1550 1552 1553 1553 1554 1555 1556 1557 1559 1559 1559 1558 1558 1557 1557 1558 1558 1558 1560
1487 1489 1492 1494 1496 1498 1501 1505 1507 1510 1514 1516 1519 1522 1526 1529 1530 1532 1534 1537 1540 1542 1542 1544 1546 1548 1549 1549 1550 1552 1553 1553 1555 1555 1557 1556 1553 1553 1553 1554 1554 1554 1555
1481 1484 1486 1489 1491 1494 1498 1501 1504 1508 1511 1515 1516 1519 1521 1523 1526 1528 1531 1534 1536 1537 1538 1540 1541 1542 1544 1545 1546 1548 1548 1549 1549 1550 1550 1551 1551 1551 1550 1550 1549 1551 1552
1477 1480 1482 1485 1488 1491 1493 1496 1500 1504 1508 1511 1514 1516 1518 1520 1522 1525 1527 1529 1531 1532 1532 1534 1535 1536 1538 1539 1541 1542 1543 1544 1544 1544 1545 1545 1545 1545 1545 1542 1543 1543 1543
1471 1476 1478 1481 1482 1485 1488 1492 1495 1499 1503 1507 1510 1513 1514 1516 1518 1520 1522 1524 1525 1527 1527 1528 1529 1531 1531 1533 1534 1535 1536 1537 1537 1537 1538 1538 1538 1537 1538 1538 1537 1536 1537
1466 1470 1474 1477 1480 1481 1484 1488 1491 1495 1498 1502 1506 1508 1510 1511 1513 1515 1517 1519 1520 1521 1523 1524 1524 1525 1526 1528 1528 1529 1530 1530 1530 1531 1531 1532 1532 1532 1532 1531 1529 1529 1530
1461 1465 1470 1473 1477 1480 1483 1486 1489 1492 1496 1498 1501 1503 1506 1507 1508 1510 1511 1513 1514 1515 1517 1518 1519 1520 1521 1522 1522 1523 1524 1524 1525 1525 1526 1526 1526 1526 1526 1527 1526 1523 1523
1452 1459 1465 1470 1474 1477 1481 1484 1487 1489 1492 1495 1496 1498 1500 1501 1502 1504 1505 1506 1507 1509 1510 1511 1512 1513 1515 1516 1517 1517 1517 1518 1519 1520 1520 1520 1520 1521 1520 1521 1521 1521 1518
1453 1458 1463 1467 1471 1475 1479 1482 1484 1486 1488 1490 1491 1492 1494 1495 1497 1497 1498 1499 1500 1501 1502 1503 1505 1507 1509 1510 1511 1512 1512 1513 1514 1514 1515 1515 1515 1514 1515 1515 1515 1515 1515
1454 1458 1463 1467 1471 1474 1476 1479 1481 1483 1485 1487 1488 1489 1490 1491 1492 1493 1493 1494 1494 1495 1496 1497 1499 1501 1503 1504 1505 1506 1506 1508 1508 1509 1509 1509 1509 1510 1509 1510 1510 1510 1511
1456 1460 1464 1467 1471 1473 1475 1477 1480 1481 1482 1484 1485 1486 1487 1487 1487 1487 1488 1489 1490 1491 1491 1493 1494 1495 1497 1498 1499 1500 1500 1501 1502 1503 1504 1504 1505 1505 1505 1506 1506 1507 1507
1459 1462 1464 1467 1470 1473 1475 1475 1478 1478 1480 1481 1482 1482 1482 1483 1483 1484 1484 1485 1486 1486 1486 1488 1489 1490 1492 1493 1493 1494 1495 1495 1497 1498 1500 1500 1501 1502 1502 1502 1503 1502 1503
1460 1462 1464 1467 1469 1470 1473 1474 1476 1477 1478 1478 1479 1480 1479 1480 1480 1480 1481 1481 1482 1482 1482 1483 1485 1486 1487 1489 1489 1490 1490 1492 1492 1495 1496 1497 1498 1498 1499 1498 1499 1499 1499
1459 1461 1462 1465 1467 1469 1471 1473 1474 1475 1476 1476 1478 1478 1478 1478 1478 1478 1479 1479 1480 1480 1480 1483 1483 1484 1485 1485 1486 1488 1488 1490 1491 1492 1494 1494 1494 1495 1496 1497 1497 1498 1497
1456 1459 1462 1463 1465 1467 1469 1471 1472 1473 1474 1475 1476 1476 1476 1477 1477 1477 1477 1478 1478 1479 1480 1482 1483 1484 1484 1485 1486 1486 1487 1488 1489 1491 1492 1492 1493 1494 1496 1496 1496 1496 1495
1454 1457 1459 1460 1462 1465 1467 1469 1470 1471 1472 1473 1473 1474 1474 1475 1475 1475 1476 1476 1477 1479 1480 1482 1483 1483 1484 1484 1485 1486 1486 1487 1489 1491 1492 1493 1494 1494 1495 1495 1495 1494 1493
1453 1455 1456 1457 1460 1462 1464 1466 1467 1469 1470 1471 1471 1472 1472 1473 1474 1475 1475 1476 1477 1478 1480 1482 1482 1482 1483 1484 1485 1486 1487 1488 1489 1491 1493 1493 1493 1493 1493 1493 1493 1491 1490
1450 1451 1452 1454 1456 1459 1461 1463 1465 1466 1467 1468 1469 1470 1470 1472 1473 1474 1475 1476 1478 1478 1480 1482 1483 1483 1483 1485 1486 1487 1488 1489 1491 1492 1492 1492 1491 1492 1492 1491 1491 1489 1488
1447 1447 1447 1450 1453 1456 1458 1460 1462 1463 1465 1466 1467 1468 1470 1471 1472 1474 1474 1476 1477 1478 1480 1481 1483 1484 1484 1485 1487 1488 1488 1490 1491 1491 1492 1491 1491 1490 1489 1489 1487 1486 1485
1445 1445 1446 1449 1452 1454 1456 1457 1459 1461 1462 1464 1465 1467 1468 1469 1471 1472 1473 1475 1476 1478 1480 1481 1483 1484 1485 1486 1487 1488 1489 1489 1490 1491 1490 1489 1489 1487 1486 1485 1484 1483 1482
1444 1445 1446 1448 1450 1451 1453 1455 1457 1459 1460 1462 1462 1464 1466 1467 1468 1470 1472 1474 1476 1478 1479 1481 1482 1484 1485 1486 1487 1488 1488 1488 1489 1489 1489 1487 1486 1485 1484 1482 1481 1480 1479
1443 1444 1445 1446 1447 1449 1451 1452 1455 1456 1457 1459 1460 1461 1463 1465 1467 1469 1471 1473 1475 1477 1479 1481 1483 1484 1485 1486 1487 1487 1487 1487 1488 1487 1486 1485 1483 1482 1481 1479 1477 1476 1476
1441 1441 1442 1443 1445 1446 1448 1450 1452 1453 1455 1456 1457 1459 1461 1463 1465 1467 1469 1472 1474 1476 1478 1480 1482 1483 1484 1485 1485 1486 1486 1486 1485 1485 1483 1482 1481 1480 1478 1476 1475 1474 1473
1438 1439 1440 1442 1443 1444 1445 1446 1448 1450 1451 1453 1455 1456 1459 1461 1463 1465 1468 1471 1474 1476 1478 1480 1481 1482 1483 1484 1484 1484 1484 1484 1483 1482 1481 1480 1478 1476 1474 1473 1472 1472 1471
1437 1437 1438 1439 1440 1441 1441 1442 1444 1446 1448 1450 1451 1454 1456 1458 1461 1463 1466 1468 1471 1474 1476 1478 1479 1480 1481 1482 1482 1482 1482 1481 1480 1479 1478 1477 1475 1473 1472 1470 1469 1469 1468